• Join FlightAware (Why Join?)
  • Login
  • US Flag GB Flag 
23:39 EST


 

Airport Tracker/Info


-or-


 

Live Flight TrackerFlight Track Log ✈ CTL15 ✈ 19-Apr-2013 ✈ KMGY - KBKL

Flight Track Log - Related Links

Times and Time Zones

All times are in EDT time to prevent confusion due to time zone crossing. See the CTL15 flight status page for this flight to view local times or setup timezone preferences in your user account.

Time Position Orientation Groundspeed Altitude Reporting Facility
EDT Latitude Longitude Course Direction KTS MPH feet Rate Location/Type
20:29 39.5744 -84.2094 49° Northeast 169 194 1,900  Level Indianapolis Center
20:30 39.5958 -84.1769 49° Northeast 163 188 2,500 600 Climbing Indianapolis Center
20:31 39.6244 -84.1436 42° Northeast 172 198 2,900 480 Climbing Indianapolis Center
20:31 39.6397 -84.1258 42° Northeast 190 219 3,100 60 Climbing Indianapolis Center
20:32 39.6644 -84.0947 44° Northeast 184 212 3,000 -240 Descending Indianapolis Center
20:32 39.6769 -84.0767 48° Northeast 207 238 2,900  Descending Indianapolis Center
20:33 39.7044 -84.0428 43° Northeast 195 224 3,000 180 Climbing Indianapolis Center
20:33 39.7164 -84.0275 45° Northeast 193 222 3,100  Climbing Indianapolis Center
20:34 39.7428 -83.9933 45° Northeast 194 223 3,000 -120 Descending Indianapolis Center
20:34 39.7536 -83.9806 42° Northeast 179 206 3,000 60 Level Indianapolis Center
20:35 39.7817 -83.9450 44° Northeast 192 221 3,100  Climbing Indianapolis Center
20:35 39.7931 -83.9314 43° Northeast 194 223 3,000  Descending Indianapolis Center
20:36 39.8200 -83.8956 46° Northeast 192 221 3,100  Climbing Indianapolis Center
20:37 39.8592 -83.8469 44° Northeast 192 221 3,100 -60 Level Indianapolis Center
20:38 39.8969 -83.7983 45° Northeast 191 220 3,000 -60 Descending Indianapolis Center
20:39 39.9353 -83.7494 44° Northeast 190 219 3,000  Level Indianapolis Center
20:40 39.9736 -83.7003 44° Northeast 190 219 3,100  Climbing Indianapolis Center
20:41 40.0128 -83.6506 44° Northeast 192 221 3,100  Level Indianapolis Center
20:42 40.0517 -83.5994 45° Northeast 193 222 3,100  Level Indianapolis Center
20:43 40.0917 -83.5489 44° Northeast 196 226 3,100 -60 Level Indianapolis Center
20:44 40.1325 -83.4992 43° Northeast 197 227 3,000 -60 Descending Indianapolis Center
20:45 40.1719 -83.4483 45° Northeast 197 227 3,000  Level Indianapolis Center
20:46 40.2181 -83.3936 42° Northeast 195 224 3,100  Climbing Indianapolis Center
20:47 40.2569 -83.3464 43° Northeast 195 224 3,100  Level Indianapolis Center
20:48 40.3003 -83.2969 41° Northeast 196 226 3,100  Level Indianapolis Center
20:49 40.3414 -83.2478 42° Northeast 195 224 3,100  Level Indianapolis Center
20:50 40.3814 -83.1989 43° Northeast 194 223 3,100  Level Indianapolis Center
20:51 40.4208 -83.1478 45° Northeast 196 226 3,100 -60 Level Indianapolis Center
20:52 40.4608 -83.0944 45° Northeast 199 229 3,000 -60 Descending Indianapolis Center
20:53 40.5008 -83.0419 45° Northeast 200 230 3,000  Level Indianapolis Center
20:54 40.5406 -82.9900 45° Northeast 201 231 3,000  Level Indianapolis Center
20:55 40.5797 -82.9369 46° Northeast 200 230 3,000  Level Indianapolis Center
20:56 40.6183 -82.8828 47° Northeast 199 229 3,000  Level Indianapolis Center
20:57 40.6558 -82.8275 48° Northeast 200 230 3,000  Level Indianapolis Center
20:58 40.6956 -82.7769 44° Northeast 198 228 3,000  Level Indianapolis Center
20:59 40.7331 -82.7244 47° Northeast 196 226 3,000  Level Indianapolis Center
21:00 40.7722 -82.6719 45° Northeast 198 228 3,100  Climbing Indianapolis Center
21:01 40.7883 -82.6481 48° Northeast 200 230 3,000 -120 Descending Cleveland Center
21:02 40.8292 -82.5917 46° Northeast 197 227 3,000  Level Cleveland Center